星链-34695 (STARLINK-34695)

导读

STARLINK-34695是美国星链星座的成员卫星,星链是SpaceX打造的低轨卫星互联网项目。该卫星于2025年7月26日发射升空,运行在近地轨道,承担为全球提供宽带互联网接入服务的任务,补充完善星链星座的全球覆盖能力与通信容量,支撑星链服务性能提升。

基本信息
目录编号:
64916
目录名称:
STARLINK-34695
国际标识:
2025-157N
轨道中心:
EARTH
卫星名称:
星链-34695
卫星全名:
星链-34695 (STARLINK-34695)
卫星状态:
在轨 (已飞行405 天)
发射日期:
2025-07-26 UTC
国别 :
美国 (US)
星等 :
--
轨道信息
数据来源 国际轨道数据 AOE轨道数据
星历时间 2026-09-03T23:29:29+0800
12小时前
查看轨道信息
2026-09-03T22:00:00+0800
14小时前
查看轨道信息
半长轴 6840.788km 6840.837km
偏心率 0.0001528 0.0001466
轨道倾角 53.158° 53.156°
近地点辐角 83.306° 78.503°
升交点赤经 228.860° 229.154°
平近点角 276.812° 298.173°
近地点 461.605km 461.697km
远地点 463.697km 463.703km
周期 93.847分钟 93.848分钟
每日圈数 15.344179 15.344014
详细信息
固有亮度:
5
最大亮度:
2.5
卫星平台:
Starlink V1.0
覆盖范围:
全球
运营商:
太空探索技术公司
运营商所在国:
美国
制造商(研发单位):
太空探索技术公司
制造商所在国:
美国
使用方式:
暂无
卫星简介
Starlink 计划是 SpaceX 推出的全球卫星互联网项目,通过发射低轨道卫星,为全球尤其是偏远地区提供高速、低延迟的互联网服务。自 2019 年起,Starlink 已部署数千颗卫星,旨在缩小全球数字鸿沟,推动互联网普及。该项目还为军事、航空等行业提供通信支持,带来广泛经济效益。
2D轨道图
3D轨道图
轨道高度分析图
轨道倾角分析图
轨道综合分析图
查看轨道综合分析图
交会数据列表
事件ID 空间交会对象 最接近时刻(TCA) 交会距离 交会风险概率(CRP) 交会风险指数(CRI) 操作
CDM_260905-065106-491606-551121
2026-09-05T
06:51:57+0000
0.555 km
远距离
9.949013E-5 中风险 0.75
CDM_260905-051806-491606-551121
2026-09-05T
05:18:10+0000
1.738 km
极远距离
2.574246E-6 低风险 0.43
CDM_260904-131505-299006-491621
2026-09-04T
13:15:10+0000
2.528 km
极远距离
1.491552E-6 低风险 0.38
CDM_260903-202205-234906-491621
2026-09-03T
20:22:13+0000
2.936 km
极远距离
1.137736E-6 低风险 0.36